Time,TemperatureF,DewpointF,PressureIn,WindDirection,WindDirectionDegrees,WindSpeedMPH,WindSpeedGustMPH,Humidity,HourlyPrecipIn,Conditions,Clouds,dailyrainin,SoftwareType,DateUTC
2013-11-21 00:07:00,27.7,16.0,30.67,North,4,2.0,2.0,61,0.00,,,0.00,weatherlink.com 1.10,2013-11-21 05:07:00,
2013-11-21 00:22:00,27.5,16.0,30.67,NNW,331,2.0,3.0,61,0.00,,,0.00,weatherlink.com 1.10,2013-11-21 05:22:00,
2013-11-21 00:37:00,28.3,15.0,30.68,WNW,293,1.0,4.0,58,0.00,,,0.00,weatherlink.com 1.10,2013-11-21 05:37:00,
2013-11-21 00:52:00,28.8,15.0,30.68,NW,326,2.0,5.0,56,0.00,,,0.00,weatherlink.com 1.10,2013-11-21 05:52:00,
2013-11-21 01:07:00,29.4,15.0,30.68,NNW,342,5.0,9.0,55,0.00,,,0.00,weatherlink.com 1.10,2013-11-21 06:07:00,
2013-11-21 01:22:00,28.8,15.0,30.67,NNW,347,7.0,8.0,57,0.00,,,0.00,weatherlink.com 1.10,2013-11-21 06:22:00,
2013-11-21 01:37:00,28.3,15.0,30.68,NW,324,5.0,8.0,59,0.00,,,0.00,weatherlink.com 1.10,2013-11-21 06:37:00,
2013-11-21 01:52:00,28.2,15.0,30.68,NNW,342,4.0,7.0,59,0.00,,,0.00,weatherlink.com 1.10,2013-11-21 06:52:00,
2013-11-21 02:07:00,28.3,15.0,30.69,NNW,342,6.0,8.0,59,0.00,,,0.00,weatherlink.com 1.10,2013-11-21 07:07:00,
2013-11-21 02:22:00,28.8,15.0,30.68,NNW,335,3.0,9.0,57,0.00,,,0.00,weatherlink.com 1.10,2013-11-21 07:22:00,
2013-11-21 02:37:00,29.1,15.0,30.68,NNW,340,6.0,8.0,56,0.00,,,0.00,weatherlink.com 1.10,2013-11-21 07:37:00,
2013-11-21 02:53:00,29.2,15.0,30.68,North,350,3.0,7.0,56,0.00,,,0.00,weatherlink.com 1.10,2013-11-21 07:53:00,
2013-11-21 03:08:00,29.4,15.0,30.68,NNW,335,4.0,7.0,55,0.00,,,0.00,weatherlink.com 1.10,2013-11-21 08:08:00,
2013-11-21 03:23:00,29.3,15.0,30.68,North,352,1.0,6.0,55,0.00,,,0.00,weatherlink.com 1.10,2013-11-21 08:23:00,
2013-11-21 03:38:00,29.4,15.0,30.67,NW,323,3.0,6.0,55,0.00,,,0.00,weatherlink.com 1.10,2013-11-21 08:38:00,
2013-11-21 03:53:00,29.2,15.0,30.67,North,356,3.0,6.0,56,0.00,,,0.00,weatherlink.com 1.10,2013-11-21 08:53:00,
2013-11-21 04:08:00,28.9,15.0,30.67,North,359,6.0,7.0,56,0.00,,,0.00,weatherlink.com 1.10,2013-11-21 09:08:00,
2013-11-21 04:23:00,28.8,15.0,30.68,NNE,33,4.0,6.0,57,0.00,,,0.00,weatherlink.com 1.10,2013-11-21 09:23:00,
2013-11-21 04:38:00,28.5,15.0,30.68,North,353,2.0,5.0,58,0.00,,,0.00,weatherlink.com 1.10,2013-11-21 09:38:00,
2013-11-21 04:53:00,28.5,15.0,30.67,NNW,336,3.0,7.0,57,0.00,,,0.00,weatherlink.com 1.10,2013-11-21 09:53:00,
2013-11-21 05:08:00,28.6,15.0,30.67,NNE,27,1.0,5.0,56,0.00,,,0.00,weatherlink.com 1.10,2013-11-21 10:08:00,
2013-11-21 05:23:00,28.1,14.0,30.67,North,6,2.0,3.0,57,0.00,,,0.00,weatherlink.com 1.10,2013-11-21 10:23:00,
2013-11-21 05:38:00,28.1,14.0,30.68,NNW,331,5.0,5.0,57,0.00,,,0.00,weatherlink.com 1.10,2013-11-21 10:38:00,
2013-11-21 05:53:00,28.0,15.0,30.68,NNW,342,5.0,7.0,58,0.00,,,0.00,weatherlink.com 1.10,2013-11-21 10:53:00,
2013-11-21 06:08:00,27.6,15.0,30.68,NNW,333,3.0,5.0,59,0.00,,,0.00,weatherlink.com 1.10,2013-11-21 11:08:00,
2013-11-21 06:23:00,27.4,15.0,30.68,NNW,341,4.0,5.0,60,0.00,,,0.00,weatherlink.com 1.10,2013-11-21 11:23:00,
2013-11-21 06:38:00,27.7,15.0,30.68,NNW,347,3.0,5.0,59,0.00,,,0.00,weatherlink.com 1.10,2013-11-21 11:38:00,
2013-11-21 06:53:00,28.3,14.0,30.68,North,6,2.0,6.0,56,0.00,,,0.00,weatherlink.com 1.10,2013-11-21 11:53:00,
2013-11-21 07:08:00,28.3,15.0,30.68,NNW,339,3.0,6.0,57,0.00,,,0.00,weatherlink.com 1.10,2013-11-21 12:08:00,
2013-11-21 07:23:00,29.1,15.0,30.69,North,351,4.0,6.0,56,0.00,,,0.00,weatherlink.com 1.10,2013-11-21 12:23:00,
2013-11-21 07:38:00,29.8,16.0,30.68,North,11,4.0,6.0,56,0.00,,,0.00,weatherlink.com 1.10,2013-11-21 12:38:00,
2013-11-21 07:53:00,31.3,16.0,30.68,NNE,16,3.0,7.0,53,0.00,,,0.00,weatherlink.com 1.10,2013-11-21 12:53:00,
2013-11-21 08:08:00,32.8,16.0,30.68,NNW,347,2.0,6.0,51,0.00,,,0.00,weatherlink.com 1.10,2013-11-21 13:08:00,
2013-11-21 08:23:00,34.1,17.0,30.68,NNW,333,2.0,6.0,50,0.00,,,0.00,weatherlink.com 1.10,2013-11-21 13:23:00,
2013-11-21 08:38:00,34.4,17.0,30.68,NNW,338,3.0,6.0,50,0.00,,,0.00,weatherlink.com 1.10,2013-11-21 13:38:00,
2013-11-21 08:53:00,36.0,18.0,30.68,North,355,2.0,6.0,49,0.00,,,0.00,weatherlink.com 1.10,2013-11-21 13:53:00,
2013-11-21 09:23:00,38.3,20.0,30.68,NNE,33,4.0,6.0,48,0.00,,,0.00,weatherlink.com 1.10,2013-11-21 14:23:00,
2013-11-21 09:38:00,39.5,21.0,30.68,NW,314,2.0,6.0,48,0.00,,,0.00,weatherlink.com 1.10,2013-11-21 14:38:00,
2013-11-21 09:53:00,40.7,22.0,30.68,NNE,26,1.0,5.0,48,0.00,,,0.00,weatherlink.com 1.10,2013-11-21 14:53:00,
2013-11-21 10:09:00,41.3,24.0,30.67,ENE,70,3.0,4.0,51,0.00,,,0.00,weatherlink.com 1.10,2013-11-21 15:09:00,
2013-11-21 10:24:00,41.7,25.0,30.67,East,89,2.0,4.0,52,0.00,,,0.00,weatherlink.com 1.10,2013-11-21 15:24:00,
2013-11-21 10:39:00,43.2,26.0,30.66,West,274,1.0,5.0,52,0.00,,,0.00,weatherlink.com 1.10,2013-11-21 15:39:00,
2013-11-21 10:54:00,43.8,28.0,30.66,West,263,3.0,6.0,54,0.00,,,0.00,weatherlink.com 1.10,2013-11-21 15:54:00,
2013-11-21 11:09:00,43.7,29.0,30.65,SW,219,5.0,6.0,56,0.00,,,0.00,weatherlink.com 1.10,2013-11-21 16:09:00,
2013-11-21 11:24:00,44.1,28.0,30.64,South,188,4.0,6.0,54,0.00,,,0.00,weatherlink.com 1.10,2013-11-21 16:24:00,
2013-11-21 11:39:00,44.7,27.0,30.64,West,281,6.0,8.0,50,0.00,,,0.00,weatherlink.com 1.10,2013-11-21 16:39:00,
2013-11-21 11:54:00,44.7,21.0,30.64,WSW,255,7.0,7.0,39,0.00,,,0.00,weatherlink.com 1.10,2013-11-21 16:54:00,
2013-11-21 12:09:00,45.0,28.0,30.63,West,263,2.0,10.0,52,0.00,,,0.00,weatherlink.com 1.10,2013-11-21 17:09:00,
2013-11-21 12:24:00,45.2,29.0,30.62,SW,231,4.0,7.0,53,0.00,,,0.00,weatherlink.com 1.10,2013-11-21 17:24:00,
2013-11-21 12:39:00,45.6,30.0,30.62,WSW,256,5.0,7.0,54,0.00,,,0.00,weatherlink.com 1.10,2013-11-21 17:39:00,
2013-11-21 12:54:00,45.3,28.0,30.61,WNW,293,8.0,10.0,51,0.00,,,0.00,weatherlink.com 1.10,2013-11-21 17:54:00,
2013-11-21 13:09:00,45.2,29.0,30.61,WSW,239,7.0,9.0,54,0.00,,,0.00,weatherlink.com 1.10,2013-11-21 18:09:00,
2013-11-21 13:24:00,45.4,29.0,30.60,West,273,4.0,7.0,52,0.00,,,0.00,weatherlink.com 1.10,2013-11-21 18:24:00,
2013-11-21 13:55:00,45.4,31.0,30.57,WSW,257,4.0,6.0,58,0.00,,,0.00,weatherlink.com 1.10,2013-11-21 18:55:00,
2013-11-21 14:09:00,45.6,31.0,30.56,WSW,253,0.0,3.0,57,0.00,,,0.00,weatherlink.com 1.10,2013-11-21 19:09:00,
2013-11-21 14:24:00,46.3,32.0,30.56,SW,217,1.0,2.0,57,0.00,,,0.00,weatherlink.com 1.10,2013-11-21 19:24:00,
2013-11-21 14:39:00,45.1,32.0,30.55,SE,136,2.0,5.0,60,0.00,,,0.00,weatherlink.com 1.10,2013-11-21 19:39:00,
2013-11-21 14:54:00,46.1,33.0,30.55,SE,141,3.0,4.0,61,0.00,,,0.00,weatherlink.com 1.10,2013-11-21 19:54:00,
2013-11-21 15:10:00,46.2,33.0,30.55,ESE,121,4.0,5.0,61,0.00,,,0.00,weatherlink.com 1.10,2013-11-21 20:10:00,
2013-11-21 15:25:00,46.4,33.0,30.54,SSW,207,3.0,5.0,60,0.00,,,0.00,weatherlink.com 1.10,2013-11-21 20:25:00,
2013-11-21 15:40:00,46.2,33.0,30.54,SSW,198,3.0,5.0,61,0.00,,,0.00,weatherlink.com 1.10,2013-11-21 20:40:00,
2013-11-21 15:55:00,45.7,34.0,30.54,SW,231,1.0,6.0,63,0.00,,,0.00,weatherlink.com 1.10,2013-11-21 20:55:00,
2013-11-21 16:10:00,45.5,33.0,30.54,SSW,201,0.0,5.0,63,0.00,,,0.00,weatherlink.com 1.10,2013-11-21 21:10:00,
2013-11-21 16:25:00,45.1,34.0,30.54,South,186,2.0,2.0,65,0.00,,,0.00,weatherlink.com 1.10,2013-11-21 21:25:00,
2013-11-21 16:40:00,44.4,34.0,30.54,SW,219,1.0,1.0,66,0.00,,,0.00,weatherlink.com 1.10,2013-11-21 21:40:00,
2013-11-21 16:55:00,43.4,33.0,30.54,West,279,0.0,2.0,68,0.00,,,0.00,weatherlink.com 1.10,2013-11-21 21:55:00,
2013-11-21 17:10:00,42.9,33.0,30.54,WNW,298,2.0,2.0,69,0.00,,,0.00,weatherlink.com 1.10,2013-11-21 22:10:00,
2013-11-21 17:25:00,41.9,33.0,30.54,WNW,298,0.0,2.0,70,0.00,,,0.00,weatherlink.com 1.10,2013-11-21 22:25:00,
2013-11-21 17:40:00,41.9,33.0,30.54,NW,312,1.0,3.0,71,0.00,,,0.00,weatherlink.com 1.10,2013-11-21 22:40:00,
2013-11-21 17:55:00,40.9,33.0,30.54,WNW,283,1.0,1.0,72,0.00,,,0.00,weatherlink.com 1.10,2013-11-21 22:55:00,
2013-11-21 18:10:00,40.2,33.0,30.54,West,276,0.0,1.0,74,0.00,,,0.00,weatherlink.com 1.10,2013-11-21 23:10:00,
2013-11-21 18:25:00,41.9,35.0,30.54,West,273,2.0,3.0,76,0.00,,,0.00,weatherlink.com 1.10,2013-11-21 23:25:00,
2013-11-21 18:40:00,42.9,35.0,30.53,West,276,3.0,4.0,74,0.00,,,0.00,weatherlink.com 1.10,2013-11-21 23:40:00,
2013-11-21 18:55:00,43.4,36.0,30.53,West,267,1.0,3.0,74,0.00,,,0.00,weatherlink.com 1.10,2013-11-21 23:55:00,
2013-11-21 19:10:00,43.6,36.0,30.53,WNW,291,2.0,3.0,74,0.00,,,0.00,weatherlink.com 1.10,2013-11-22 00:10:00,
2013-11-21 19:25:00,43.7,36.0,30.52,WNW,290,0.0,3.0,75,0.00,,,0.00,weatherlink.com 1.10,2013-11-22 00:25:00,
2013-11-21 19:40:00,44.3,37.0,30.52,WNW,293,2.0,5.0,75,0.00,,,0.00,weatherlink.com 1.10,2013-11-22 00:40:00,
2013-11-21 19:55:00,44.1,37.0,30.52,West,278,1.0,3.0,76,0.00,,,0.00,weatherlink.com 1.10,2013-11-22 00:55:00,
2013-11-21 20:10:00,43.9,37.0,30.51,WNW,285,0.0,2.0,76,0.00,,,0.00,weatherlink.com 1.10,2013-11-22 01:10:00,
2013-11-21 20:25:00,42.4,35.0,30.51,NNW,347,0.0,3.0,76,0.00,,,0.00,weatherlink.com 1.10,2013-11-22 01:25:00,
2013-11-21 20:40:00,41.3,34.0,30.51,NNW,347,0.0,1.0,76,0.00,,,0.00,weatherlink.com 1.10,2013-11-22 01:40:00,
2013-11-21 20:55:00,41.3,35.0,30.51,NNW,347,1.0,1.0,77,0.00,,,0.00,weatherlink.com 1.10,2013-11-22 01:55:00,
2013-11-21 21:10:00,41.3,35.0,30.50,West,280,1.0,2.0,79,0.00,,,0.00,weatherlink.com 1.10,2013-11-22 02:10:00,
2013-11-21 21:25:00,42.9,37.0,30.50,WNW,301,3.0,4.0,79,0.00,,,0.00,weatherlink.com 1.10,2013-11-22 02:25:00,
2013-11-21 21:40:00,44.2,38.0,30.50,WSW,246,1.0,4.0,78,0.00,,,0.00,weatherlink.com 1.10,2013-11-22 02:40:00,
2013-11-21 21:55:00,47.1,40.0,30.48,SW,225,6.0,9.0,77,0.00,,,0.00,weatherlink.com 1.10,2013-11-22 02:55:00,
2013-11-21 22:10:00,48.1,40.0,30.48,West,263,8.0,11.0,74,0.00,,,0.00,weatherlink.com 1.10,2013-11-22 03:10:00,
2013-11-21 22:25:00,48.4,40.0,30.48,WSW,255,6.0,10.0,73,0.00,,,0.00,weatherlink.com 1.10,2013-11-22 03:25:00,
2013-11-21 22:40:00,48.7,40.0,30.48,SSW,212,7.0,10.0,73,0.00,,,0.00,weatherlink.com 1.10,2013-11-22 03:40:00,
2013-11-21 22:55:00,48.8,40.0,30.47,SSE,167,2.0,9.0,73,0.00,,,0.00,weatherlink.com 1.10,2013-11-22 03:55:00,
2013-11-21 23:10:00,49.0,41.0,30.47,WSW,255,5.0,9.0,73,0.00,,,0.00,weatherlink.com 1.10,2013-11-22 04:10:00,
2013-11-21 23:25:00,49.1,41.0,30.46,SW,225,9.0,9.0,74,0.00,,,0.00,weatherlink.com 1.10,2013-11-22 04:25:00,
2013-11-21 23:40:00,49.3,42.0,30.46,WSW,246,6.0,9.0,75,0.00,,,0.00,weatherlink.com 1.10,2013-11-22 04:40:00,
2013-11-21 23:55:00,49.3,42.0,30.45,West,271,3.0,9.0,75,0.00,,,0.00,weatherlink.com 1.10,2013-11-22 04:55:00,